Regional Weather Roundup
Issued by NWS

Home | Current Version | Previous Version | Graphics & Text | Print | Product List | Glossary On
Versions: 1 2 3 4 5 6 7 8 9 10 11 12 13 14 15 16 17 18 19 20 21 22 23 24 25 26 27 28 29 30 31 32 33 34 35 36 37 38 39 40 41 42 43 44 45 46 47 48 49 50
000
ASUS43 KLMK 031910
RWRKY
KENTUCKY REGIONAL WEATHER ROUNDUP
NATIONAL WEATHER SERVICE LOUISVILLE KY
300 PM EDT MON AUG 03 2015

NOTE "FAIR" INDICATES FEW OR NO CLOUDS BELOW 12,000 FEET
WITH NO SIGNIFICANT WEATHER AND/OR OBSTRUCTIONS TO VISIBILITY.

KYZ001>023-026-027-061>063-070>075-032000-
WESTERN AND SOUTH CENTRAL KENTUCKY

CITY           SKY/WX    TMP DP  RH WIND       PRES   REMARKS
PADUCAH        SUNNY     92  72  51 NW9       29.90F HX  99
HENDERSON      SUNNY     91  72  52 SW8       29.87S HX  98
OWENSBORO      SUNNY     92  72  51 W9        29.89S HX  99
HOPKINSVILLE   SUNNY     91  72  54 W10       29.91F HX  98
BOWLING GREEN  SUNNY     93  70  46 W9G17     29.91F HX  99
GLASGOW        SUNNY    N/A N/A N/A W6        29.91F
$$

KYZ024-025-028>034-038-045-046-053-032000-
NORTH CENTRAL KENTUCKY

CITY           SKY/WX    TMP DP  RH WIND       PRES   REMARKS
LOUISVILLE/SDF MOSUNNY   90  69  50 SW16      29.86F HX  94
LOUISVILLE/LOU SUNNY     90  69  50 W13G18    29.87F HX  94
FORT KNOX      SUNNY     90  71  53 SW12G20   29.87F HX  96
$$

KYZ035>037-039>044-047>052-055>060-089>105-032000-
NORTHEAST KENTUCKY

CITY           SKY/WX    TMP DP  RH WIND       PRES   REMARKS
LEXINGTON      SUNNY     86  68  54 SW14G21   29.90F
COVINGTON      SUNNY     83  68  60 SW10      29.87F
FRANKFORT      SUNNY     85  67  54 SW13      29.88F
$$

KYZ054-064>069-076>088-106>120-032000-
SOUTHEAST KENTUCKY

CITY           SKY/WX    TMP DP  RH WIND       PRES   REMARKS
JACKSON        SUNNY     83  64  52 VRB6      29.95F
LONDON         SUNNY     87  63  44 W9        29.96F
SOMERSET       SUNNY     86  64  48 W9        29.95F
MIDDLESBORO    MOSUNNY   87  66  49 S5        29.97F
MONTICELLO     CLEAR     89  71  55 SW9       29.97F HX  95
$$




USA.gov is the U.S. government's official web portal to all federal, state and local government web resources and services.